Simultaneous Nadir Overpasses (SNOs) Predictions

Prediction of SNOs between LANDSAT-8 and NPP Satellite Orbit:

Table of predicted SNOs for the next 14.0 days since TLE Epoch: 8/11/2014
Index Date (LANDSAT-8) Time (LANDSAT-8) Lat,Lon (LANDSAT-8) SZA (LANDSAT-8 ) Date (NPP) Time (NPP) Lat,Lon (NPP) SZA (NPP ) Distance(km) Time Diff (sec)
1 08/12/2014 17:28:32 71.05, -84.32 56.15 08/12/2014 17:27:21 71.08, -85.27 56.22 34.55 71
2 08/12/2014 18:18:07 -70.66, 82.72 124.22 08/12/2014 18:17:57 -70.68, 82.72 124.20 2.23 10
3 08/12/2014 19:07:34 70.56,-109.79 55.70 08/12/2014 19:08:41 70.56,-109.77 55.69 0.66 67
4 08/15/2014 09:45:07 70.75, 31.10 56.68 08/15/2014 09:44:15 70.74, 31.07 56.68 1.88 52
5 08/15/2014 10:34:37 -70.64,-161.43 123.42 08/15/2014 10:34:57 -70.65,-161.47 123.41 1.63 20
6 08/15/2014 11:24:20 69.66, 4.80 55.65 08/15/2014 11:25:25 69.68, 7.34 55.60 98.22 65
7 08/18/2014 02:01:37 70.72, 146.93 57.49 08/18/2014 02:01:15 70.71, 146.88 57.49 1.96 22
8 08/18/2014 02:51:07 -70.61, -45.60 122.61 08/18/2014 02:51:57 -70.62, -45.66 122.59 2.60 50
9 08/20/2014 17:28:40 -70.77, 95.25 121.60 08/20/2014 17:27:30 -70.75, 95.26 121.61 2.16 70
10 08/20/2014 18:18:07 70.67, -97.26 58.32 08/20/2014 18:18:15 70.69, -97.32 58.34 2.97 8
11 08/20/2014 19:07:41 -70.34, 69.89 121.99 08/20/2014 19:08:52 -70.33, 70.56 122.02 25.31 71
12 08/23/2014 09:45:09 -70.71,-148.95 120.76 08/23/2014 09:44:29 -70.73,-148.94 120.74 2.15 40
13 08/23/2014 10:34:36 70.61, 18.53
